QPF
0.00 0.00 0.00 0.00 0.00 0.00 0.01 0.01 0.01 0.00 0.00 0.00 0.00 0.00 0.00 0.00 0.00 0.00 0.00 0.00 0.00 0.00 0.00 0.00 0.00 0.01 0.01 0.01 0.01 0.01 0.00 0.00 0.01 0.01 0.01 0.00 0.01 0.01 0.01 0.01 0.01 0.01 0.01 0.02
0.00 0.00 0.00 0.00 0.00 0.00 0.01 0.01 0.01 0.01 0.00 0.00 0.00 0.00 0.00 0.00 0.00 0.00 0.00 0.00 0.00 0.00 0.00 0.00 0.01 0.01 0.01 0.01 0.01 0.01 0.01 0.00 0.00 0.01 0.01 0.01 0.01 0.01 0.01 0.01 0.01 0.01 0.01 0.01
0.01 0.00 0.00 0.00 0.00 0.00 0.00 0.01 0.01 0.01 0.01 0.01 0.00 0.00 0.00 0.00 0.00 0.00 0.00 0.00 0.00 0.00 0.00 0.01 0.01 0.01 0.01 0.01 0.01 0.01 0.01 0.01 0.01 0.01 0.01 0.01 0.01 0.01 0.00 0.01 0.01 0.01 0.01 0.01
0.01 0.01 0.01 0.00 0.00 0.00 0.00 0.00 0.01 0.01 0.01 0.01 0.01 0.01 0.01 0.01 0.01 0.01 0.01 0.00 0.00 0.00 0.00 0.00 0.01 0.01 0.01 0.01 0.01 0.01 0.01 0.01 0.01 0.01 0.01 0.01 0.01 0.00 0.00 0.00 0.00 0.01 0.01 0.01
0.02 0.01 0.01 0.00 0.00 0.00 0.00 0.00 0.01 0.01 0.01 0.00 0.00 0.00 0.01 0.01 0.01 0.01 0.01 0.01 0.00 0.00 0.00 0.00 0.00 0.00 0.00 0.00 0.01 0.01 0.01 0.01 0.01 0.01 0.01 0.01 0.01 0.00 0.00 0.00 0.00 0.01 0.01 0.01
0.03 0.02 0.01 0.00 0.00 0.00 0.00 0.00 0.00 0.00 0.00 0.00 0.00 0.00 0.00 0.00 0.00 0.00 0.01 0.01 0.01 0.00 0.00 0.00 0.00 0.00 0.00 0.00 0.00 0.00 0.00 0.00 0.00 0.01 0.01 0.01 0.01 0.00 0.00 0.00 0.00 0.00 0.01 0.01
0.02 0.02 0.01 0.01 0.00 0.00 0.01 0.01 0.00 0.00 0.00 0.00 0.01 0.01 0.00 0.00 0.00 0.00 0.01 0.01 0.01 0.01 0.00 0.00 0.00 0.00 0.00 0.00 0.00 0.00 0.00 0.00 0.00 0.00 0.01 0.01 0.01 0.00 0.00 0.00 0.00 0.00 0.00 0.00
0.02 0.02 0.01 0.01 0.01 0.01 0.01 0.00 0.00 0.00 0.00 0.00 0.00 0.00 0.00 0.01 0.01 0.01 0.01 0.01 0.01 0.01 0.00 0.00 0.00 0.00 0.00 0.00 0.00 0.00 0.00 0.00 0.00 0.00 0.00 0.01 0.01 0.01 0.00 0.00 0.01 0.01 0.01 0.00
0.01 0.01 0.01 0.01 0.01 0.01 0.01 0.00 0.00 0.00 0.00 0.01 0.01 0.01 0.01 0.01 0.01 0.01 0.01 0.01 0.01 0.01 0.01 0.00 0.00 0.00 0.00 0.00 0.00 0.00 0.00 0.00 0.00 0.00 0.00 0.00 0.00 0.01 0.01 0.00 0.01 0.01 0.01 0.01
0.01 0.00 0.00 0.01 0.01 0.01 0.00 0.00 0.00 0.00 0.00 0.01 0.01 0.01 0.01 0.01 0.01 0.01 0.01 0.01 0.01 0.01 0.01 0.01 0.00 0.00 0.00 0.00 0.00 0.00 0.00 0.00 0.00 0.00 0.00 0.01 0.01 0.00 0.01 0.01 0.01 0.01 0.01 0.01
0.01 0.00 0.00 0.00 0.00 0.00 0.00 0.00 0.00 0.01 0.01 0.01 0.01 0.01 0.01 0.01 0.01 0.01 0.01 0.01 0.01 0.01 0.01 0.01 0.01 0.00 0.00 0.01 0.01 0.01 0.01 0.01 0.01 0.01 0.01 0.01 0.01 0.01 0.01 0.01 0.01 0.02 0.02 0.02
0.01 0.00 0.00 0.00 0.00 0.00 0.00 0.01 0.01 0.01 0.01 0.01 0.01 0.01 0.01 0.01 0.01 0.01 0.01 0.01 0.01 0.01 0.01 0.01 0.01 0.01 0.01 0.01 0.01 0.01 0.01 0.01 0.01 0.01 0.01 0.01 0.01 0.01 0.01 0.01 0.01 0.01 0.01 0.02
0.01 0.01 0.01 0.01 0.01 0.01 0.01 0.01 0.01 0.01 0.01 0.01 0.01 0.01 0.01 0.00 0.00 0.01 0.01 0.01 0.01 0.01 0.01 0.01 0.01 0.01 0.01 0.01 0.01 0.01 0.01 0.01 0.01 0.01 0.01 0.01 0.01 0.01 0.01 0.01 0.01 0.01 0.01 0.01
0.01 0.01 0.01 0.01 0.01 0.01 0.01 0.01 0.01 0.01 0.01 0.01 0.00 0.00 0.00 0.00 0.00 0.00 0.00 0.01 0.01 0.01 0.01 0.01 0.01 0.00 0.00 0.01 0.01 0.00 0.00 0.01 0.01 0.01 0.01 0.01 0.01 0.01 0.01 0.01 0.01 0.01 0.01 0.01
0.00 0.01 0.01 0.01 0.01 0.01 0.01 0.00 0.00 0.00 0.00 0.00 0.00 0.00 0.00 0.00 0.00 0.00 0.00 0.00 0.00 0.00 0.00 0.00 0.00 0.00 0.00 0.00 0.00 0.00 0.00 0.01 0.01 0.01 0.01 0.01 0.01 0.01 0.01 0.01 0.01 0.01 0.01 0.01
0.00 0.01 0.01 0.01 0.01 0.01 0.01 0.00 0.00 0.00 0.00 0.00 0.00 0.00 0.00 0.00 0.00 0.00 0.00 0.00 0.00 0.00 0.00 0.00 0.00 0.00 0.00 0.00 0.00 0.00 0.00 0.01 0.01 0.01 0.01 0.01 0.01 0.01 0.01 0.01 0.01 0.01 0.01 0.02
0.01 0.01 0.01 0.01 0.01 0.00 0.00 0.00 0.00 0.00 0.00 0.00 0.00 0.00 0.00 0.00 0.00 0.00 0.00 0.00 0.00 0.00 0.00 0.00 0.00 0.00 0.00 0.00 0.01 0.01 0.00 0.01 0.01 0.01 0.01 0.01 0.01 0.01 0.01 0.01 0.01 0.01 0.01 0.01
0.01 0.01 0.01 0.01 0.00 0.00 0.00 0.00 0.00 0.00 0.00 0.00 0.00 0.00 0.00 0.00 0.00 0.00 0.00 0.00 0.00 0.00 0.00 0.00 0.00 0.00 0.00 0.00 0.01 0.01 0.01 0.01 0.01 0.01 0.01 0.01 0.02 0.02 0.02 0.02 0.01 0.01 0.01 0.01
0.00 0.00 0.00 0.00 0.00 0.00 0.00 0.00 0.00 0.00 0.00 0.00 0.00 0.00 0.00 0.00 0.00 0.00 0.00 0.00 0.00 0.00 0.00 0.00 0.01 0.01 0.01 0.01 0.01 0.01 0.01 0.01 0.01 0.01 0.01 0.01 0.01 0.02 0.02 0.02 0.02 0.02 0.01 0.01
0.00 0.00 0.00 0.00 0.00 0.00 0.00 0.00 0.00 0.00 0.00 0.00 0.00 0.00 0.00 0.00 0.00 0.00 0.00 0.00 0.00 0.00 0.00 0.00 0.01 0.01 0.01 0.01 0.01 0.01 0.01 0.01 0.01 0.01 0.01 0.01 0.01 0.01 0.01 0.01 0.02 0.02 0.02 0.02
0.00 0.00 0.01 0.01 0.00 0.00 0.00 0.00 0.00 0.00 0.00 0.00 0.00 0.00 0.00 0.00 0.00 0.00 0.00 0.00 0.00 0.00 0.00 0.01 0.01 0.01 0.01 0.01 0.01 0.01 0.01 0.01 0.01 0.01 0.01 0.01 0.01 0.01 0.01 0.01 0.01 0.02 0.02 0.02
0.01 0.01 0.01 0.01 0.01 0.01 0.00 0.00 0.00 0.00 0.00 0.00 0.00 0.00 0.00 0.00 0.00 0.00 0.00 0.00 0.00 0.01 0.01 0.01 0.01 0.01 0.02 0.02 0.02 0.01 0.01 0.01 0.01 0.01 0.01 0.01 0.01 0.01 0.01 0.01 0.01 0.01 0.02 0.02
0.01 0.01 0.01 0.01 0.01 0.00 0.00 0.00 0.00 0.00 0.00 0.00 0.00 0.00 0.00 0.01 0.01 0.01 0.01 0.01 0.01 0.01 0.01 0.01 0.02 0.02 0.02 0.02 0.01 0.01 0.01 0.01 0.01 0.01 0.01 0.01 0.01 0.01 0.01 0.01 0.01 0.01 0.01 0.01
0.01 0.01 0.01 0.00 0.00 0.00 0.00 0.00 0.00 0.00 0.00 0.00 0.00 0.01 0.01 0.01 0.01 0.01 0.01 0.01 0.02 0.02 0.02 0.01 0.02 0.02 0.02 0.02 0.01 0.01 0.01 0.01 0.01 0.01 0.01 0.01 0.01 0.01 0.01 0.01 0.01 0.01 0.01 0.01
0.01 0.01 0.00 0.00 0.00 0.00 0.00 0.00 0.00 0.00 0.00 0.00 0.00 0.01 0.01 0.01 0.01 0.01 0.01 0.01 0.02 0.01 0.01 0.01 0.01 0.01 0.01 0.01 0.01 0.01 0.01 0.01 0.01 0.01 0.01 0.01 0.01 0.01 0.01 0.01 0.01 0.01 0.01 0.01
0.00 0.00 0.00 0.00 0.00 0.00 0.00 0.00 0.00 0.00 0.00 0.00 0.00 0.01 0.01 0.01 0.01 0.01 0.01 0.01 0.01 0.01 0.01 0.01 0.01 0.01 0.01 0.00 0.00 0.01 0.01 0.01 0.01 0.01 0.01 0.01 0.01 0.01 0.01 0.01 0.01 0.01 0.01 0.01
0.01 0.00 0.00 0.00 0.00 0.00 0.00 0.00 0.00 0.00 0.00 0.01 0.01 0.01 0.01 0.01 0.01 0.01 0.01 0.01 0.01 0.01 0.01 0.01 0.00 0.00 0.00 0.00 0.00 0.00 0.00 0.00 0.00 0.00 0.01 0.01 0.01 0.01 0.01 0.01 0.01 0.01 0.01 0.01
MSLP
1026.22 1027.35 1028.25 1028.91 1029.35 1029.63 1029.87 1030.18 1030.65 1031.33 1032.23 1033.30 1034.46 1035.60 1036.60 1037.38 1037.88 1038.09 1038.06 1037.84 1037.52 1037.17 1036.85 1036.59 1036.37 1036.17 1035.94 1035.62 1035.18 1034.62 1033.94 1033.17 1032.37 1031.57 1030.80 1030.10 1029.44 1028.80 1028.15 1027.44 1026.63 1025.72 1024.70 1023.60
1026.47 1027.82 1029.02 1030.02 1030.82 1031.45 1031.96 1032.43 1032.93 1033.52 1034.20 1034.98 1035.80 1036.60 1037.30 1037.84 1038.20 1038.35 1038.33 1038.17 1037.94 1037.67 1037.42 1037.19 1036.98 1036.76 1036.50 1036.17 1035.74 1035.20 1034.57 1033.86 1033.12 1032.38 1031.65 1030.95 1030.28 1029.61 1028.91 1028.17 1027.35 1026.45 1025.46 1024.40
1026.08 1027.54 1028.95 1030.24 1031.36 1032.30 1033.10 1033.78 1034.40 1034.99 1035.59 1036.19 1036.79 1037.34 1037.82 1038.19 1038.43 1038.54 1038.52 1038.41 1038.24 1038.04 1037.83 1037.62 1037.41 1037.18 1036.91 1036.57 1036.16 1035.67 1035.10 1034.47 1033.80 1033.11 1032.42 1031.73 1031.05 1030.35 1029.62 1028.85 1028.02 1027.13 1026.18 1025.19
1025.39 1026.89 1028.42 1029.90 1031.27 1032.50 1033.55 1034.46 1035.23 1035.90 1036.49 1037.01 1037.48 1037.88 1038.20 1038.45 1038.61 1038.67 1038.66 1038.58 1038.44 1038.28 1038.09 1037.89 1037.67 1037.43 1037.14 1036.81 1036.42 1035.97 1035.46 1034.91 1034.31 1033.68 1033.04 1032.36 1031.67 1030.95 1030.19 1029.40 1028.57 1027.70 1026.80 1025.88
1024.93 1026.40 1027.97 1029.55 1031.08 1032.50 1033.76 1034.85 1035.77 1036.53 1037.14 1037.63 1038.01 1038.31 1038.53 1038.68 1038.77 1038.79 1038.76 1038.68 1038.56 1038.40 1038.22 1038.01 1037.77 1037.51 1037.21 1036.88 1036.51 1036.09 1035.64 1035.15 1034.62 1034.05 1033.44 1032.79 1032.10 1031.36 1030.59 1029.78 1028.95 1028.11 1027.25 1026.41
1025.15 1026.54 1028.07 1029.67 1031.26 1032.77 1034.14 1035.34 1036.34 1037.14 1037.77 1038.22 1038.54 1038.75 1038.87 1038.94 1038.95 1038.92 1038.86 1038.76 1038.63 1038.46 1038.26 1038.03 1037.77 1037.48 1037.16 1036.82 1036.45 1036.06 1035.64 1035.20 1034.72 1034.20 1033.63 1033.00 1032.32 1031.59 1030.81 1030.00 1029.17 1028.35 1027.54 1026.75
1026.34 1027.63 1029.06 1030.58 1032.13 1033.61 1034.98 1036.18 1037.17 1037.96 1038.53 1038.91 1039.14 1039.25 1039.27 1039.24 1039.17 1039.07 1038.96 1038.83 1038.68 1038.49 1038.27 1038.01 1037.72 1037.39 1037.05 1036.68 1036.31 1035.93 1035.53 1035.12 1034.67 1034.19 1033.65 1033.04 1032.37 1031.65 1030.87 1030.06 1029.25 1028.44 1027.66 1026.92
1028.55 1029.69 1030.98 1032.36 1033.76 1035.11 1036.36 1037.45 1038.34 1039.01 1039.46 1039.72 1039.82 1039.80 1039.71 1039.57 1039.40 1039.24 1039.07 1038.90 1038.72 1038.51 1038.26 1037.98 1037.66 1037.31 1036.94 1036.55 1036.16 1035.77 1035.37 1034.97 1034.54 1034.07 1033.55 1032.97 1032.32 1031.61 1030.84 1030.04 1029.23 1028.44 1027.67 1026.95
1031.51 1032.51 1033.61 1034.77 1035.96 1037.09 1038.13 1039.01 1039.70 1040.19 1040.47 1040.56 1040.51 1040.35 1040.12 1039.87 1039.62 1039.38 1039.17 1038.96 1038.75 1038.53 1038.27 1037.98 1037.64 1037.27 1036.88 1036.46 1036.05 1035.64 1035.23 1034.82 1034.39 1033.93 1033.42 1032.85 1032.22 1031.52 1030.77 1029.98 1029.18 1028.39 1027.63 1026.91
1034.78 1035.61 1036.50 1037.42 1038.34 1039.20 1039.97 1040.59 1041.04 1041.30 1041.38 1041.29 1041.07 1040.77 1040.43 1040.08 1039.76 1039.47 1039.21 1038.99 1038.77 1038.55 1038.29 1038.00 1037.66 1037.28 1036.87 1036.43 1036.00 1035.56 1035.13 1034.70 1034.26 1033.80 1033.29 1032.73 1032.11 1031.43 1030.70 1029.92 1029.13 1028.34 1027.58 1026.84
1037.83 1038.50 1039.16 1039.82 1040.46 1041.04 1041.52 1041.88 1042.08 1042.12 1042.01 1041.76 1041.41 1041.00 1040.57 1040.16 1039.78 1039.46 1039.19 1038.96 1038.75 1038.53 1038.29 1038.00 1037.67 1037.29 1036.88 1036.43 1035.98 1035.52 1035.06 1034.61 1034.15 1033.68 1033.17 1032.61 1032.01 1031.34 1030.62 1029.87 1029.09 1028.30 1027.53 1026.78
1040.21 1040.70 1041.16 1041.58 1041.96 1042.27 1042.51 1042.63 1042.64 1042.51 1042.26 1041.90 1041.47 1041.00 1040.53 1040.09 1039.70 1039.37 1039.10 1038.87 1038.66 1038.46 1038.22 1037.95 1037.63 1037.26 1036.84 1036.39 1035.92 1035.44 1034.96 1034.49 1034.01 1033.53 1033.01 1032.46 1031.86 1031.21 1030.52 1029.78 1029.01 1028.24 1027.46 1026.71
1041.71 1042.04 1042.30 1042.52 1042.68 1042.80 1042.85 1042.81 1042.69 1042.47 1042.15 1041.76 1041.31 1040.84 1040.38 1039.94 1039.56 1039.23 1038.96 1038.73 1038.52 1038.30 1038.07 1037.79 1037.47 1037.10 1036.68 1036.22 1035.74 1035.25 1034.76 1034.27 1033.78 1033.28 1032.76 1032.21 1031.63 1031.00 1030.32 1029.61 1028.87 1028.11 1027.34 1026.59
1042.37 1042.55 1042.66 1042.72 1042.73 1042.72 1042.65 1042.54 1042.37 1042.13 1041.82 1041.45 1041.05 1040.62 1040.19 1039.79 1039.42 1039.09 1038.81 1038.55 1038.31 1038.06 1037.80 1037.50 1037.15 1036.76 1036.33 1035.87 1035.38 1034.89 1034.39 1033.89 1033.40 1032.89 1032.37 1031.83 1031.25 1030.64 1029.99 1029.31 1028.59 1027.86 1027.12 1026.39
1042.44 1042.50 1042.49 1042.44 1042.37 1042.28 1042.18 1042.05 1041.89 1041.69 1041.45 1041.16 1040.82 1040.46 1040.09 1039.71 1039.35 1039.00 1038.67 1038.36 1038.05 1037.74 1037.40 1037.04 1036.65 1036.23 1035.78 1035.30 1034.81 1034.32 1033.82 1033.33 1032.83 1032.33 1031.81 1031.28 1030.71 1030.12 1029.50 1028.84 1028.17 1027.47 1026.77 1026.07
1042.25 1042.23 1042.14 1042.03 1041.91 1041.80 1041.70 1041.61 1041.50 1041.37 1041.21 1041.00 1040.75 1040.45 1040.11 1039.74 1039.36 1038.97 1038.56 1038.16 1037.75 1037.33 1036.90 1036.45 1035.99 1035.52 1035.04 1034.55 1034.05 1033.56 1033.07 1032.59 1032.10 1031.60 1031.10 1030.57 1030.02 1029.45 1028.85 1028.23 1027.59 1026.94 1026.28 1025.63
1042.14 1042.06 1041.92 1041.78 1041.64 1041.53 1041.45 1041.39 1041.34 1041.28 1041.18 1041.04 1040.84 1040.57 1040.24 1039.86 1039.43 1038.95 1038.45 1037.92 1037.39 1036.84 1036.30 1035.75 1035.21 1034.68 1034.16 1033.65 1033.16 1032.68 1032.20 1031.73 1031.26 1030.77 1030.28 1029.77 1029.23 1028.67 1028.10 1027.51 1026.91 1026.30 1025.70 1025.09
1042.30 1042.18 1042.01 1041.83 1041.68 1041.57 1041.49 1041.45 1041.42 1041.38 1041.31 1041.20 1041.01 1040.74 1040.39 1039.96 1039.45 1038.88 1038.27 1037.61 1036.95 1036.28 1035.62 1034.98 1034.36 1033.78 1033.23 1032.71 1032.22 1031.74 1031.29 1030.83 1030.38 1029.91 1029.43 1028.93 1028.40 1027.86 1027.31 1026.75 1026.18 1025.62 1025.06 1024.51
1042.74 1042.58 1042.38 1042.17 1041.98 1041.84 1041.73 1041.66 1041.60 1041.55 1041.46 1041.31 1041.10 1040.79 1040.39 1039.89 1039.31 1038.65 1037.93 1037.18 1036.40 1035.64 1034.89 1034.18 1033.51 1032.89 1032.32 1031.79 1031.31 1030.85 1030.41 1029.98 1029.54 1029.09 1028.62 1028.12 1027.61 1027.09 1026.55 1026.02 1025.48 1024.96 1024.45 1023.94
1043.27 1043.07 1042.83 1042.58 1042.33 1042.12 1041.95 1041.81 1041.68 1041.55 1041.40 1041.19 1040.91 1040.55 1040.09 1039.53 1038.89 1038.16 1037.38 1036.57 1035.73 1034.91 1034.12 1033.37 1032.68 1032.05 1031.48 1030.97 1030.50 1030.06 1029.64 1029.22 1028.80 1028.36 1027.90 1027.42 1026.91 1026.40 1025.88 1025.37 1024.87 1024.38 1023.91 1023.44
1043.66 1043.42 1043.13 1042.80 1042.48 1042.19 1041.92 1041.67 1041.44 1041.21 1040.97 1040.68 1040.33 1039.91 1039.40 1038.81 1038.14 1037.40 1036.60 1035.78 1034.94 1034.12 1033.33 1032.59 1031.92 1031.30 1030.75 1030.25 1029.80 1029.39 1028.98 1028.58 1028.17 1027.74 1027.29 1026.82 1026.33 1025.83 1025.33 1024.84 1024.37 1023.92 1023.48 1023.05
1043.69 1043.40 1043.04 1042.65 1042.24 1041.85 1041.47 1041.12 1040.78 1040.45 1040.11 1039.74 1039.33 1038.87 1038.34 1037.75 1037.09 1036.38 1035.63 1034.85 1034.06 1033.29 1032.55 1031.86 1031.22 1030.64 1030.12 1029.65 1029.22 1028.82 1028.43 1028.04 1027.64 1027.22 1026.78 1026.32 1025.85 1025.36 1024.89 1024.43 1023.98 1023.56 1023.15 1022.74
1043.23 1042.89 1042.48 1042.02 1041.54 1041.06 1040.59 1040.14 1039.71 1039.29 1038.87 1038.45 1038.00 1037.53 1037.01 1036.46 1035.85 1035.21 1034.53 1033.84 1033.14 1032.45 1031.79 1031.17 1030.58 1030.05 1029.57 1029.13 1028.72 1028.33 1027.96 1027.58 1027.18 1026.78 1026.35 1025.90 1025.45 1024.99 1024.54 1024.10 1023.68 1023.28 1022.89 1022.50
1042.32 1041.93 1041.48 1040.98 1040.45 1039.92 1039.39 1038.88 1038.38 1037.90 1037.44 1036.99 1036.54 1036.07 1035.60 1035.09 1034.57 1034.01 1033.44 1032.85 1032.25 1031.66 1031.08 1030.53 1030.01 1029.52 1029.07 1028.65 1028.26 1027.88 1027.51 1027.14 1026.76 1026.37 1025.96 1025.53 1025.10 1024.66 1024.24 1023.82 1023.42 1023.03 1022.64 1022.26
1041.09 1040.68 1040.22 1039.71 1039.17 1038.62 1038.07 1037.54 1037.02 1036.52 1036.04 1035.58 1035.14 1034.71 1034.27 1033.83 1033.38 1032.92 1032.44 1031.94 1031.44 1030.93 1030.43 1029.94 1029.46 1029.01 1028.59 1028.19 1027.80 1027.44 1027.08 1026.72 1026.35 1025.98 1025.59 1025.18 1024.78 1024.36 1023.95 1023.54 1023.15 1022.75 1022.36 1021.96
1039.77 1039.36 1038.91 1038.43 1037.92 1037.39 1036.86 1036.34 1035.83 1035.33 1034.86 1034.41 1033.99 1033.58 1033.18 1032.79 1032.40 1032.00 1031.58 1031.16 1030.72 1030.27 1029.82 1029.37 1028.93 1028.51 1028.10 1027.71 1027.34 1026.98 1026.63 1026.29 1025.94 1025.58 1025.22 1024.84 1024.45 1024.05 1023.64 1023.23 1022.82 1022.40 1021.98 1021.54
1038.54 1038.16 1037.76 1037.33 1036.88 1036.41 1035.92 1035.43 1034.95 1034.47 1034.01 1033.56 1033.15 1032.75 1032.36 1031.99 1031.63 1031.25 1030.87 1030.48 1030.08 1029.66 1029.23 1028.81 1028.38 1027.97 1027.57 1027.19 1026.83 1026.49 1026.16 1025.83 1025.51 1025.18 1024.83 1024.47 1024.09 1023.69 1023.27 1022.83 1022.39 1021.92 1021.45 1020.95
Thickness
5396 5392 5388 5389 5387 5377 5378 5396 5404 5412 5403 5403 5393 5382 5376 5369 5364 5359 5356 5352 5349 5346 5344 5342 5339 5337 5336 5335 5334 5333 5333 5334 5335 5336 5336 5338 5339 5341 5342 5344 5346 5347 5349 5352
5378 5377 5374 5375 5382 5376 5372 5375 5379 5382 5384 5379 5370 5363 5359 5355 5350 5347 5345 5341 5338 5334 5332 5329 5327 5325 5323 5322 5320 5320 5321 5321 5322 5322 5323 5324 5326 5327 5329 5331 5332 5334 5336 5338
5388 5364 5365 5384 5383 5373 5367 5362 5365 5374 5376 5363 5355 5352 5350 5345 5339 5336 5334 5330 5326 5323 5321 5318 5315 5312 5310 5309 5307 5307 5307 5307 5308 5309 5310 5310 5312 5314 5316 5317 5319 5321 5322 5325
5370 5360 5370 5393 5359 5362 5360 5355 5350 5350 5351 5346 5345 5340 5335 5332 5329 5326 5322 5318 5314 5311 5308 5305 5303 5300 5298 5296 5295 5295 5295 5295 5295 5295 5296 5297 5299 5301 5303 5304 5306 5308 5309 5312
5361 5368 5382 5372 5352 5343 5344 5350 5343 5338 5337 5334 5326 5325 5331 5322 5316 5313 5309 5305 5301 5298 5296 5293 5290 5288 5285 5284 5283 5283 5283 5283 5283 5283 5283 5284 5286 5287 5289 5291 5293 5294 5296 5298
5349 5358 5373 5374 5338 5327 5332 5345 5338 5327 5325 5321 5314 5331 5334 5312 5304 5300 5295 5291 5288 5285 5282 5280 5278 5276 5274 5273 5272 5272 5272 5271 5271 5270 5271 5272 5273 5274 5275 5277 5279 5280 5282 5284
5342 5349 5360 5339 5318 5317 5337 5348 5325 5318 5314 5307 5307 5312 5305 5296 5291 5286 5282 5279 5275 5272 5270 5268 5265 5263 5262 5262 5261 5260 5259 5259 5259 5258 5259 5260 5260 5261 5262 5263 5265 5267 5269 5271
5330 5335 5347 5316 5309 5319 5328 5314 5307 5304 5300 5295 5293 5289 5285 5281 5277 5273 5269 5266 5262 5259 5257 5255 5252 5251 5251 5250 5249 5248 5247 5247 5247 5247 5247 5247 5247 5248 5249 5250 5252 5253 5255 5257
5325 5335 5320 5303 5305 5302 5297 5296 5294 5291 5285 5280 5277 5274 5271 5266 5263 5260 5256 5252 5249 5245 5243 5242 5240 5238 5238 5238 5236 5236 5235 5235 5235 5235 5235 5235 5235 5236 5237 5237 5239 5241 5243 5245
5302 5310 5304 5295 5290 5286 5282 5280 5277 5272 5268 5265 5262 5260 5256 5252 5249 5246 5243 5239 5235 5232 5230 5229 5227 5225 5225 5224 5223 5223 5223 5223 5224 5224 5224 5224 5224 5224 5225 5226 5227 5228 5230 5232
5293 5296 5290 5287 5281 5275 5270 5264 5259 5256 5252 5250 5248 5245 5241 5238 5235 5232 5229 5225 5221 5219 5217 5216 5214 5213 5212 5211 5210 5211 5211 5212 5212 5213 5213 5213 5213 5213 5214 5214 5215 5216 5218 5219
5299 5289 5282 5279 5267 5260 5255 5251 5247 5243 5240 5237 5233 5230 5227 5223 5220 5217 5215 5212 5209 5206 5204 5203 5201 5200 5199 5198 5198 5198 5199 5200 5201 5202 5202 5202 5203 5203 5203 5203 5204 5204 5205 5206
5270 5264 5261 5256 5250 5246 5242 5238 5234 5230 5227 5223 5219 5215 5213 5210 5207 5204 5201 5199 5196 5194 5192 5191 5189 5188 5187 5186 5186 5186 5187 5188 5189 5190 5191 5191 5191 5192 5193 5193 5193 5194 5195 5195
5250 5247 5246 5243 5239 5232 5227 5223 5219 5216 5213 5209 5206 5202 5199 5196 5194 5191 5189 5187 5184 5182 5181 5179 5178 5177 5176 5175 5175 5175 5175 5176 5177 5178 5179 5180 5180 5181 5181 5182 5184 5184 5184 5184
5237 5234 5233 5228 5222 5217 5213 5210 5207 5204 5201 5197 5193 5190 5187 5184 5181 5179 5176 5174 5172 5171 5170 5168 5167 5167 5165 5164 5164 5164 5165 5166 5166 5167 5168 5169 5169 5170 5170 5170 5171 5172 5173 5173
5224 5220 5216 5213 5211 5206 5202 5198 5195 5193 5189 5185 5181 5178 5175 5171 5169 5167 5164 5162 5160 5161 5159 5157 5157 5156 5155 5154 5154 5154 5155 5156 5156 5157 5157 5158 5159 5159 5159 5159 5159 5160 5161 5161
5213 5212 5208 5204 5200 5195 5191 5187 5184 5181 5176 5173 5170 5166 5163 5160 5158 5156 5154 5152 5149 5148 5147 5147 5147 5146 5145 5145 5145 5145 5146 5146 5146 5147 5147 5148 5148 5148 5148 5148 5148 5149 5149 5149
5203 5201 5197 5194 5189 5184 5180 5176 5172 5168 5164 5161 5157 5154 5151 5149 5148 5146 5144 5142 5140 5139 5139 5138 5137 5137 5137 5136 5136 5136 5136 5136 5136 5137 5137 5137 5137 5137 5137 5137 5137 5137 5138 5139
5189 5186 5183 5179 5175 5171 5167 5163 5159 5156 5152 5148 5146 5143 5141 5139 5137 5135 5133 5131 5131 5131 5131 5129 5129 5129 5128 5127 5127 5127 5127 5127 5127 5127 5127 5128 5128 5127 5126 5126 5126 5127 5127 5128
5177 5174 5170 5166 5162 5158 5154 5151 5147 5143 5140 5137 5134 5132 5131 5129 5127 5125 5123 5123 5124 5123 5122 5121 5121 5121 5120 5119 5119 5118 5118 5118 5118 5118 5117 5117 5117 5117 5116 5116 5116 5117 5117 5118
5167 5163 5158 5154 5150 5146 5143 5139 5136 5133 5130 5127 5124 5122 5120 5119 5117 5115 5115 5117 5117 5114 5113 5113 5113 5112 5112 5111 5110 5109 5109 5108 5108 5108 5107 5107 5107 5107 5107 5107 5107 5107 5108 5109
5156 5152 5147 5143 5139 5136 5132 5129 5126 5123 5120 5118 5115 5112 5110 5109 5108 5107 5106 5106 5106 5106 5106 5105 5104 5104 5104 5103 5102 5100 5099 5099 5098 5098 5098 5097 5097 5098 5098 5098 5098 5099 5100 5101
5145 5141 5137 5133 5129 5125 5122 5119 5116 5114 5111 5108 5106 5103 5102 5100 5100 5099 5099 5098 5097 5097 5097 5096 5096 5096 5096 5094 5093 5091 5090 5089 5089 5088 5088 5088 5088 5088 5089 5089 5090 5091 5092 5093
5135 5131 5126 5122 5118 5116 5113 5111 5107 5105 5102 5099 5097 5095 5093 5092 5092 5090 5088 5089 5089 5089 5088 5088 5088 5088 5087 5085 5083 5082 5081 5080 5080 5080 5080 5080 5080 5081 5081 5082 5083 5084 5085 5087
5125 5121 5117 5113 5111 5109 5106 5102 5099 5097 5095 5093 5091 5088 5086 5084 5083 5082 5080 5079 5079 5080 5079 5078 5078 5078 5076 5075 5074 5073 5073 5073 5072 5072 5073 5073 5073 5074 5074 5075 5076 5078 5079 5081
5117 5114 5110 5106 5103 5100 5098 5096 5093 5091 5088 5086 5084 5082 5079 5077 5075 5074 5073 5071 5070 5070 5070 5069 5068 5067 5066 5065 5065 5065 5065 5065 5065 5065 5066 5066 5067 5068 5068 5069 5070 5071 5073 5075
5109 5105 5102 5099 5096 5093 5091 5088 5086 5084 5081 5079 5077 5076 5073 5071 5069 5068 5066 5064 5063 5062 5061 5060 5059 5059 5058 5057 5057 5057 5057 5058 5058 5059 5060 5061 5061 5062 5063 5064 5065 5066 5068 5070